Tracking 35237 objects as of 5-Sep-2026
HD Live streaming from Space Station
objects crossing your sky now

DELTA 1 DEB

Track DELTA 1 DEB now!
10-day predictions


NORAD ID: 19590
Int'l Code: 1973-086HG
Launch date: November 6, 1973
Source: United States (US)
Launch site: AIR FORCE WESTERN TEST RANGE (AFWTR)

Note: This is SATELLITE DEBRIS
Your satellite tracking list
Your tracking list is empty




NASA's NSSDC Master Catalog

Two Line Element Set (TLE):
1 19590U 73086HG  26246.03093472 -.00000053  00000-0 -53901-4 0  9998
2 19590 102.4549 268.6393 0045582 275.1646 111.2456 12.31852813655744
Source of the keplerian elements: AFSPC